Wind_Speed
11 11 11 15 16 16 20 20 16 9 8 8 9 9 11 14 14 16 20 25 30 31 29 27 25 26 28 29 24 21 19 18 20 23 22 23 25 22 21 24 26 32 36
16 13 10 12 15 19 22 20 16 11 7 7 7 7 8 11 15 17 21 16 27 31 30 30 32 32 33 31 29 27 26 24 23 22 23 23 24 26 24 24 28 27 31
17 14 11 11 16 22 22 19 14 11 10 10 9 11 12 16 19 20 24 23 29 33 34 36 34 35 38 36 31 31 31 28 26 22 21 20 24 25 23 25 27 30 26
18 13 11 11 17 23 23 20 16 11 10 12 13 14 17 17 18 22 26 27 28 31 38 40 40 40 41 38 35 33 34 33 31 27 23 23 27 32 34 34 34 34 37
22 16 13 17 20 24 24 21 20 17 14 14 16 14 13 16 18 23 25 29 32 36 40 44 43 40 40 37 36 34 33 34 35 32 27 29 34 35 37 39 39 42 40
23 22 20 22 22 23 23 24 22 21 17 15 15 15 15 18 19 23 25 30 32 36 41 45 39 37 35 32 31 29 33 35 36 34 34 38 42 42 42 43 46 46 45
27 23 21 23 25 25 25 29 27 27 23 20 21 18 19 20 22 24 28 30 33 37 43 43 35 31 31 32 31 31 34 36 39 38 39 43 46 47 48 48 50 51 52
30 26 24 22 25 27 27 31 28 27 25 27 29 25 28 26 24 26 29 34 36 41 45 38 32 32 33 31 32 33 34 37 40 41 44 49 51 51 50 50 53 56 51
33 33 27 28 31 29 28 32 35 35 33 32 37 35 34 27 28 29 34 37 39 44 42 33 32 31 35 31 33 35 38 43 42 43 47 50 50 54 57 56 53 52 51
37 36 35 32 36 35 33 33 38 38 37 38 41 36 30 31 35 33 37 38 44 46 43 37 37 38 38 37 37 37 38 40 41 45 51 55 57 54 53 55 53 50 46
39 34 35 36 39 39 38 34 37 42 43 40 42 31 30 34 33 36 40 43 48 50 47 41 40 40 40 41 36 33 36 39 44 52 52 52 52 49 48 46 44 43 41
49 44 44 40 44 44 41 37 41 43 43 45 45 27 32 34 38 41 43 47 51 51 43 40 41 42 43 43 38 40 43 47 47 49 49 48 46 43 41 42 43 44 43
50 43 45 43 42 46 47 45 45 44 45 47 34 32 35 35 41 44 44 48 51 47 45 45 43 43 43 44 41 38 39 43 45 44 41 38 38 40 42 44 43 42 38
49 47 46 44 45 44 52 50 48 49 47 39 37 40 36 39 44 46 48 52 52 51 47 46 44 42 43 39 35 38 43 42 38 35 35 36 37 39 41 41 38 36 33
65 48 48 49 48 47 53 56 57 54 45 30 39 42 41 43 48 52 54 58 58 49 46 45 44 42 39 38 40 39 35 29 31 32 33 34 36 37 37 36 32 30 28
60 55 52 52 50 54 61 64 49 35 30 39 44 47 45 50 54 57 57 59 45 44 43 43 40 38 36 37 34 30 29 30 31 31 31 32 34 34 34 33 31 30 28
64 60 61 55 57 48 47 58 21 34 41 46 48 59 47 57 60 58 59 45 43 43 41 39 39 36 34 32 29 30 28 28 28 27 29 31 32 33 34 34 33 32 31
50 46 51 54 53 50 56 49 31 41 48 48 50 56 60 60 60 38 37 39 40 39 39 37 31 30 30 27 29 29 26 25 25 27 29 30 31 33 34 33 33 33 33
44 46 41 44 47 48 51 53 45 47 54 55 60 55 62 56 44 36 37 36 37 37 37 33 27 29 28 30 31 26 23 22 24 26 28 29 31 32 33 32 33 34 33
38 32 41 42 45 50 56 55 59 61 62 64 62 47 41 42 42 38 35 34 35 35 34 27 27 28 28 29 26 22 21 22 23 26 28 29 31 32 33 33 35 34 33
39 38 42 47 48 49 55 59 59 59 62 52 28 33 38 40 38 36 35 33 34 34 29 26 27 28 26 25 23 20 19 21 24 27 29 30 31 32 32 33 35 33 31
43 36 39 43 47 50 55 56 54 56 47 39 30 28 33 36 35 34 31 30 31 29 25 26 28 24 24 23 23 21 22 25 28 29 29 30 30 31 32 32 34 32 29
40 44 37 36 42 47 41 40 45 35 33 38 30 28 33 34 33 30 29 30 29 27 27 29 24 23 22 21 22 22 24 27 28 28 28 29 30 31 30 32 32 31 28
35 38 38 41 48 33 36 37 43 37 31 27 29 30 30 31 27 29 30 29 26 27 28 27 23 24 21 21 21 22 25 26 26 26 26 26 28 30 30 30 31 31 29
43 43 38 40 40 42 37 35 38 34 31 28 30 29 28 27 28 31 32 28 27 28 29 27 24 22 21 23 22 22 25 26 26 25 24 24 25 26 27 28 29 30 30
49 49 48 47 44 39 42 36 32 32 31 29 33 37 34 28 30 33 32 30 29 29 30 28 26 23 24 25 24 24 25 26 26 23 22 21 22 24 26 27 27 27 29
Wind_Direction
262 271 265 258 245 225 227 237 227 209 206 195 235 266 285 303 307 332 342 356 357 350 335 333 332 330 330 325 326 323 306 312 309 306 300 297 305 303 294 282 282 269 269
258 270 264 262 238 215 222 215 201 213 188 209 236 267 290 292 314 316 333 343 347 345 346 337 334 333 327 331 320 314 317 311 314 305 301 299 302 299 308 310 310 286 287
255 265 259 260 221 202 206 207 209 198 195 212 239 268 291 304 312 328 329 331 341 341 340 341 334 327 325 320 317 309 307 306 305 301 294 305 311 291 296 298 302 298 285
257 256 250 239 224 198 200 207 215 212 210 224 244 278 298 311 318 319 327 333 340 338 338 334 328 324 321 314 312 306 301 301 301 299 301 305 308 304 292 291 295 293 294
270 265 241 232 230 221 211 214 214 212 225 242 248 266 288 305 307 313 324 331 330 333 327 330 324 318 318 310 307 302 301 305 305 300 302 309 309 305 295 295 295 293 293
261 273 250 234 234 233 225 220 219 219 244 241 256 268 290 291 304 312 319 324 322 323 325 325 321 313 311 305 308 300 301 303 302 298 297 303 301 299 293 290 288 290 296
264 260 250 242 235 239 234 227 226 236 237 252 263 265 276 288 301 308 319 323 324 323 324 324 318 314 312 307 308 298 295 297 296 292 290 295 298 296 292 288 289 292 297
257 263 253 255 241 241 246 240 239 241 250 267 274 264 262 261 284 304 315 319 324 328 323 321 313 315 313 308 307 300 293 299 294 290 290 295 299 296 294 293 293 295 295
248 254 254 247 256 253 244 244 244 248 262 270 272 276 296 321 307 310 311 323 330 332 326 319 318 313 313 303 304 302 295 296 295 293 293 298 295 293 295 297 296 296 295
250 252 260 250 246 249 249 245 244 249 257 265 270 281 306 299 313 319 315 320 329 327 324 320 313 309 307 302 301 300 295 297 295 291 294 296 298 298 298 298 298 296 296
250 246 243 254 240 242 250 244 247 246 251 262 263 276 297 301 312 316 315 321 321 321 321 316 310 307 304 305 300 299 293 285 288 295 296 299 300 300 300 299 300 299 295
247 249 239 249 243 238 245 247 247 247 251 258 264 287 295 298 308 309 317 317 317 317 312 310 305 305 306 306 299 298 297 296 300 299 301 304 305 305 306 303 300 298 297
250 251 252 242 239 237 241 248 249 246 252 259 276 276 292 300 302 308 311 309 312 314 311 309 307 307 307 309 307 303 301 298 301 305 307 308 309 309 309 307 304 302 301
246 246 245 248 249 240 243 245 248 248 250 253 265 282 288 293 297 302 302 301 307 313 311 307 307 309 311 309 303 301 300 306 307 307 310 315 316 316 314 313 311 307 301
247 242 240 236 242 238 241 243 240 240 242 265 272 278 283 291 292 292 296 297 303 308 306 305 308 312 312 308 304 305 308 306 308 313 316 316 317 320 320 320 316 312 308
247 240 236 236 240 237 241 240 233 247 271 269 271 273 273 286 289 288 292 298 305 302 302 307 310 312 311 308 307 310 313 312 311 312 314 319 322 325 325 324 320 315 311
232 238 236 239 241 240 256 259 245 246 255 264 277 281 277 286 283 280 283 297 300 300 305 309 312 314 311 309 311 312 309 309 310 313 318 322 326 329 329 326 321 317 312
236 241 242 245 252 259 262 265 261 258 258 269 276 274 278 279 282 293 295 300 296 301 305 308 310 308 308 307 308 308 310 311 313 319 321 321 324 328 329 328 325 321 316
239 239 241 244 244 249 257 261 255 258 265 271 272 267 274 275 291 289 294 293 295 300 304 307 308 308 306 307 310 309 308 310 315 319 324 325 325 328 331 332 330 327 326
237 234 236 240 238 241 247 252 257 264 272 255 261 269 286 290 287 292 291 291 294 299 303 303 309 311 308 307 305 304 308 311 314 318 323 324 327 328 332 335 334 330 327
243 243 240 240 241 241 246 251 257 261 256 283 246 270 282 286 290 286 288 292 297 301 298 303 311 310 303 298 297 297 304 313 316 319 321 323 326 328 331 336 338 336 335
241 244 242 239 244 245 245 252 255 257 267 270 257 272 277 278 279 280 285 289 292 292 295 303 304 301 301 302 298 291 299 309 312 311 315 319 323 327 331 335 339 339 340
241 240 247 228 253 248 259 272 273 252 255 262 251 252 270 271 279 280 284 287 288 291 300 304 300 298 296 292 290 290 298 306 310 309 309 314 318 323 330 335 338 342 338
263 265 265 264 268 281 281 259 250 262 258 257 264 264 269 277 276 283 282 281 285 292 298 294 288 285 282 283 285 291 298 304 309 309 309 313 317 321 325 329 336 340 341
255 266 269 267 263 277 253 235 238 245 262 273 276 278 279 278 280 279 277 277 283 292 297 287 279 274 275 280 285 292 297 301 303 303 306 311 316 321 325 327 331 337 340
259 262 269 272 262 245 240 240 250 265 268 262 273 277 273 271 280 279 281 281 286 293 290 278 270 264 269 275 281 285 290 294 296 297 300 306 311 317 322 325 327 331 337
Height
5895 5895 5897 5896 5896 5897 5899 5900 5900 5902 5903 5904 5903 5903 5901 5899 5897 5896 5894 5890 5886 5883 5880 5878 5876 5871 5867 5864 5861 5858 5856 5854 5852 5848 5846 5846 5844 5844 5844 5844 5843 5842 5841
5891 5891 5892 5892 5892 5892 5893 5894 5896 5897 5899 5900 5900 5899 5897 5896 5894 5892 5889 5886 5883 5879 5875 5872 5870 5867 5862 5858 5855 5853 5851 5848 5845 5842 5841 5839 5839 5836 5835 5833 5831 5830 5830
5886 5887 5887 5887 5887 5887 5889 5890 5892 5894 5895 5895 5895 5894 5893 5891 5889 5886 5883 5881 5879 5875 5872 5868 5864 5861 5858 5853 5849 5845 5842 5840 5838 5835 5833 5832 5830 5827 5827 5825 5822 5819 5818
5882 5883 5883 5884 5883 5883 5885 5886 5887 5888 5889 5889 5890 5889 5887 5885 5884 5881 5879 5876 5873 5870 5865 5862 5857 5854 5850 5845 5841 5837 5835 5832 5830 5828 5826 5823 5822 5818 5816 5815 5814 5811 5809
5878 5881 5880 5879 5879 5879 5880 5882 5883 5884 5884 5885 5885 5884 5882 5880 5879 5876 5874 5871 5866 5863 5859 5854 5850 5846 5842 5838 5834 5830 5828 5827 5825 5822 5820 5817 5814 5812 5807 5805 5802 5799 5799
5872 5876 5876 5875 5875 5876 5877 5877 5878 5879 5879 5879 5877 5876 5875 5873 5872 5869 5867 5864 5860 5857 5853 5848 5843 5838 5834 5831 5828 5824 5822 5819 5816 5814 5813 5809 5805 5801 5797 5794 5790 5788 5786
5866 5868 5869 5870 5870 5871 5872 5873 5874 5874 5874 5873 5871 5870 5869 5866 5863 5861 5859 5856 5854 5851 5845 5840 5837 5831 5827 5824 5821 5818 5815 5811 5808 5804 5801 5797 5793 5787 5785 5781 5776 5773 5770
5857 5859 5861 5863 5865 5865 5864 5865 5867 5866 5867 5865 5864 5862 5860 5847 5851 5855 5852 5850 5845 5840 5836 5833 5829 5823 5820 5816 5813 5809 5805 5801 5797 5792 5788 5784 5779 5773 5769 5766 5763 5758 5755
5849 5851 5854 5855 5857 5858 5859 5859 5859 5859 5858 5858 5855 5855 5854 5841 5850 5848 5845 5840 5836 5833 5829 5826 5821 5816 5811 5806 5803 5799 5794 5789 5784 5780 5776 5772 5767 5762 5757 5753 5748 5744 5740
5839 5843 5846 5847 5848 5849 5851 5851 5851 5851 5849 5848 5847 5848 5844 5841 5839 5835 5833 5831 5828 5825 5822 5818 5813 5808 5803 5798 5793 5789 5783 5777 5773 5769 5765 5759 5754 5749 5743 5738 5733 5728 5724
5828 5831 5834 5836 5839 5840 5841 5843 5843 5841 5838 5838 5838 5836 5835 5834 5832 5828 5825 5822 5820 5816 5812 5808 5802 5798 5794 5788 5782 5777 5773 5768 5762 5757 5751 5745 5741 5736 5730 5724 5719 5715 5711
5814 5817 5821 5824 5827 5829 5831 5833 5829 5828 5830 5829 5828 5825 5827 5826 5824 5820 5817 5814 5812 5808 5803 5796 5791 5787 5783 5778 5773 5769 5764 5759 5753 5746 5740 5735 5730 5723 5718 5713 5707 5703 5698
5802 5805 5808 5812 5815 5818 5819 5820 5817 5819 5819 5818 5818 5818 5817 5816 5814 5811 5807 5806 5803 5799 5792 5786 5781 5777 5772 5767 5762 5757 5752 5746 5741 5735 5729 5725 5720 5715 5708 5702 5696 5691 5686
5788 5794 5797 5800 5803 5805 5807 5806 5806 5806 5806 5805 5807 5806 5806 5805 5802 5800 5798 5796 5793 5788 5782 5777 5772 5767 5763 5758 5752 5747 5742 5737 5731 5726 5721 5716 5711 5705 5699 5692 5686 5680 5675
5773 5779 5782 5785 5788 5791 5792 5790 5788 5787 5782 5788 5793 5795 5794 5793 5792 5789 5788 5785 5782 5777 5771 5768 5763 5759 5754 5749 5743 5737 5733 5728 5723 5718 5713 5709 5703 5697 5690 5684 5678 5673 5668
5757 5761 5765 5771 5772 5773 5773 5766 5754 5766 5774 5780 5782 5781 5782 5782 5781 5779 5777 5775 5770 5766 5762 5758 5753 5749 5743 5739 5734 5728 5724 5721 5717 5712 5708 5703 5697 5690 5684 5678 5672 5667 5663
5742 5748 5751 5752 5748 5743 5756 5747 5751 5766 5769 5770 5770 5772 5771 5770 5768 5766 5765 5762 5759 5756 5753 5748 5744 5740 5735 5731 5726 5722 5718 5715 5712 5707 5702 5696 5691 5685 5678 5672 5666 5661 5656
5730 5730 5731 5738 5740 5743 5747 5751 5749 5757 5759 5760 5761 5760 5759 5758 5757 5756 5753 5751 5750 5746 5742 5738 5734 5730 5727 5724 5719 5715 5713 5710 5706 5702 5697 5692 5686 5680 5673 5667 5661 5655 5650
5720 5725 5728 5729 5731 5732 5735 5738 5740 5743 5747 5749 5750 5749 5747 5743 5744 5741 5743 5741 5738 5735 5733 5730 5726 5722 5719 5716 5712 5709 5708 5705 5701 5697 5692 5687 5681 5675 5669 5662 5656 5649 5643
5709 5712 5718 5720 5723 5726 5729 5730 5732 5736 5740 5738 5738 5736 5737 5735 5735 5731 5733 5729 5727 5725 5724 5721 5718 5714 5712 5709 5704 5703 5701 5698 5694 5690 5687 5682 5677 5671 5664 5658 5651 5644 5637
5703 5707 5708 5713 5717 5719 5722 5725 5725 5729 5725 5725 5717 5721 5724 5724 5722 5721 5720 5718 5717 5716 5715 5712 5708 5707 5705 5702 5699 5698 5697 5693 5689 5686 5682 5677 5672 5666 5660 5654 5647 5639 5633
5693 5698 5701 5703 5704 5706 5709 5712 5712 5711 5714 5713 5709 5709 5710 5712 5712 5711 5709 5707 5707 5706 5705 5703 5701 5700 5697 5694 5692 5691 5690 5687 5683 5680 5676 5672 5668 5662 5656 5650 5644 5636 5630
5683 5686 5686 5688 5690 5692 5694 5696 5697 5698 5699 5702 5701 5700 5701 5703 5702 5700 5698 5698 5698 5697 5694 5693 5691 5691 5689 5687 5686 5684 5682 5680 5677 5674 5671 5667 5663 5658 5653 5647 5641 5634 5628
5674 5677 5679 5679 5680 5683 5684 5685 5687 5687 5686 5688 5690 5691 5691 5691 5690 5688 5688 5688 5688 5687 5686 5684 5684 5682 5680 5679 5679 5678 5675 5673 5670 5667 5665 5661 5658 5653 5649 5644 5638 5632 5626
5665 5666 5667 5666 5668 5673 5677 5675 5675 5676 5677 5677 5677 5679 5679 5679 5677 5677 5679 5679 5678 5677 5674 5675 5675 5673 5673 5672 5672 5670 5668 5666 5664 5661 5659 5656 5652 5648 5644 5640 5635 5630 5625
5652 5652 5653 5655 5657 5659 5662 5664 5666 5668 5668 5667 5668 5669 5670 5668 5668 5668 5668 5667 5666 5665 5666 5666 5667 5665 5664 5664 5663 5662 5660 5658 5657 5654 5653 5650 5647 5643 5640 5636 5631 5627 5623